| time (UTC) | temp F | wind direction | speed MPH | gust MPH | rain 1hr in | rain 24hr in | rain mn in | humidity % | barometer mb |
| 20260906142530 | 72 | 292 | 11.0 | 21.0 | 0.00 | 0.07 | 0.00 | 52 | 1026.3 |
| 20260906141531 | 71 | 271 | 14.0 | 22.0 | 0.00 | 0.08 | 0.00 | 53 | 1026.3 |
| 20260906140529 | 72 | 277 | 14.0 | 25.0 | 0.00 | 0.08 | 0.00 | 52 | 1026.4 |
| 20260906135529 | 71 | 276 | 11.0 | 24.0 | 0.00 | 0.08 | 0.00 | 53 | 1026.4 |
| 20260906133530 | 70 | 284 | 13.0 | 25.0 | 0.00 | 0.08 | 0.00 | 53 | 1026.4 |
| 20260906132529 | 69 | 278 | 13.0 | 22.0 | 0.00 | 0.08 | 0.00 | 53 | 1026.4 |
| 20260906130530 | 71 | 287 | 13.0 | 21.0 | 0.00 | 0.08 | 0.00 | 52 | 1026.5 |
| 20260906125530 | 71 | 278 | 12.0 | 21.0 | 0.00 | 0.08 | 0.00 | 52 | 1026.5 |
| 20260906124531 | 71 | 291 | 12.0 | 19.0 | 0.00 | 0.08 | 0.00 | 53 | 1026.5 |
| 20260906122530 | 70 | 280 | 12.0 | 20.0 | 0.00 | 0.08 | 0.00 | 54 | 1026.5 |
| 20260906121531 | 69 | 272 | 13.0 | 22.0 | 0.00 | 0.08 | 0.00 | 56 | 1026.5 |
| 20260906120529 | 68 | 277 | 12.0 | 19.0 | 0.00 | 0.08 | 0.00 | 57 | 1026.3 |
| 20260906115530 | 68 | 276 | 14.0 | 22.0 | 0.00 | 0.08 | 0.00 | 56 | 1026.3 |
| 20260906114532 | 68 | 281 | 10.0 | 22.0 | 0.00 | 0.08 | 0.00 | 56 | 1026.3 |
| 20260906113529 | 68 | 283 | 10.0 | 19.0 | 0.00 | 0.08 | 0.00 | 56 | 1026.3 |
| 20260906112530 | 69 | 285 | 12.0 | 22.0 | 0.00 | 0.08 | 0.00 | 55 | 1026.3 |
| 20260906110530 | 68 | 290 | 8.0 | 22.0 | 0.00 | 0.08 | 0.00 | 58 | 1026.2 |
| 20260906105530 | 67 | 274 | 10.0 | 22.0 | 0.00 | 0.08 | 0.00 | 60 | 1026.2 |
| 20260906104530 | 66 | 289 | 14.0 | 23.0 | 0.00 | 0.08 | 0.00 | 62 | 1026.2 |
| 20260906103530 | 66 | 297 | 12.0 | 24.0 | 0.00 | 0.08 | 0.00 | 61 | 1026.2 |
| 20260906102530 | 65 | 289 | 14.0 | 23.0 | 0.00 | 0.08 | 0.00 | 63 | 1026.2 |
| 20260906101532 | 66 | 262 | 13.0 | 23.0 | 0.00 | 0.08 | 0.00 | 62 | 1026.2 |
| 20260906100530 | 66 | 270 | 12.0 | 20.0 | 0.00 | 0.08 | 0.00 | 64 | 1026.2 |
| 20260906095528 | 64 | 266 | 11.0 | 20.0 | 0.00 | 0.08 | 0.00 | 65 | 1026.2 |
| 20260906094531 | 65 | 287 | 12.0 | 19.0 | 0.00 | 0.08 | 0.00 | 64 | 1026.2 |
| 20260906093529 | 64 | 277 | 12.0 | 20.0 | 0.00 | 0.08 | 0.00 | 67 | 1026.2 |
| 20260906092529 | 63 | 273 | 11.0 | 20.0 | 0.00 | 0.08 | 0.00 | 69 | 1026.2 |
| 20260906091533 | 62 | 271 | 11.0 | 19.0 | 0.00 | 0.08 | 0.00 | 70 | 1026.2 |
| 20260906090530 | 62 | 274 | 9.0 | 18.0 | 0.00 | 0.08 | 0.00 | 72 | 1025.7 |
| 20260906085530 | 62 | 276 | 11.0 | 19.0 | 0.00 | 0.08 | 0.00 | 72 | 1025.7 |
| 20260906084530 | 61 | 272 | 12.0 | 21.0 | 0.00 | 0.08 | 0.00 | 74 | 1025.7 |
| 20260906081532 | 60 | 287 | 11.0 | 18.0 | 0.00 | 0.08 | 0.00 | 77 | 1025.7 |
| 20260906080530 | 60 | 282 | 13.0 | 19.0 | 0.00 | 0.08 | 0.00 | 78 | 1025.1 |
| 20260906074531 | 59 | 283 | 14.0 | 20.0 | 0.00 | 0.08 | 0.00 | 78 | 1025.1 |
| 20260906073529 | 58 | 285 | 13.0 | 20.0 | 0.00 | 0.08 | 0.00 | 80 | 1025.1 |
| 20260906072528 | 58 | 291 | 14.0 | 20.0 | 0.00 | 0.08 | 0.00 | 80 | 1025.1 |
| 20260906071532 | 58 | 293 | 11.0 | 19.0 | 0.00 | 0.08 | 0.00 | 80 | 1025.1 |
| 20260906070529 | 57 | 295 | 13.0 | 16.0 | 0.00 | 0.08 | 0.00 | 81 | 1024.5 |
| 20260906065529 | 57 | 298 | 10.0 | 13.0 | 0.00 | 0.08 | 0.00 | 82 | 1024.5 |
| 20260906064532 | 57 | 278 | 14.0 | 17.0 | 0.00 | 0.08 | 0.00 | 83 | 1024.5 |
| 20260906062528 | 56 | 260 | 13.0 | 14.0 | 0.00 | 0.08 | 0.00 | 83 | 1024.5 |
| 20260906054532 | 55 | 266 | 10.0 | 12.0 | 0.00 | 0.08 | 0.00 | 84 | 1024.0 |
| 20260906053528 | 55 | 261 | 7.0 | 11.0 | 0.00 | 0.08 | 0.00 | 84 | 1024.0 |
| 20260906052528 | 55 | 254 | 10.0 | 11.0 | 0.00 | 0.08 | 0.00 | 84 | 1024.0 |
| 20260906051531 | 55 | 269 | 8.0 | 11.0 | 0.00 | 0.08 | 0.00 | 84 | 1024.0 |
| 20260906050529 | 55 | 264 | 8.0 | 16.0 | 0.00 | 0.08 | 0.00 | 84 | 1023.4 |
| 20260906045531 | 55 | 263 | 10.0 | 17.0 | 0.00 | 0.08 | 0.00 | 84 | 1023.4 |
| 20260906044531 | 55 | 256 | 8.0 | 15.0 | 0.00 | 0.08 | 0.00 | 83 | 1023.4 |
| 20260906043529 | 55 | 262 | 7.0 | 17.0 | 0.00 | 0.08 | 0.00 | 83 | 1023.4 |
| 20260906041531 | 56 | 274 | 10.0 | 16.0 | 0.00 | 0.08 | 0.00 | 83 | 1023.4 |
| 20260906035529 | 56 | 275 | 9.0 | 21.0 | 0.00 | 0.08 | 0.00 | 83 | 1023.0 |
| 20260906033527 | 56 | 280 | 8.0 | 21.0 | 0.00 | 0.08 | 0.00 | 83 | 1023.0 |
| 20260906032528 | 56 | 266 | 10.0 | 21.0 | 0.00 | 0.08 | 0.00 | 83 | 1023.0 |
| 20260906031531 | 56 | 287 | 14.0 | 18.0 | 0.00 | 0.08 | 0.00 | 83 | 1023.0 |
| 20260906030530 | 56 | 283 | 12.0 | 16.0 | 0.00 | 0.08 | 0.00 | 83 | 1022.7 |
| 20260906025528 | 56 | 279 | 13.0 | 18.0 | 0.00 | 0.08 | 0.00 | 83 | 1022.7 |
| 20260906024530 | 56 | 265 | 14.0 | 16.0 | 0.00 | 0.08 | 0.00 | 82 | 1022.7 |
| 20260906023529 | 56 | 264 | 13.0 | 18.0 | 0.00 | 0.08 | 0.00 | 82 | 1022.7 |
| 20260906022529 | 56 | 280 | 14.0 | 16.0 | 0.00 | 0.08 | 0.00 | 82 | 1022.7 |
| 20260906021530 | 57 | 263 | 12.0 | 19.0 | 0.00 | 0.08 | 0.00 | 82 | 1022.7 |
| 20260906020530 | 57 | 277 | 12.0 | 20.0 | 0.00 | 0.08 | 0.00 | 82 | 1022.2 |
| 20260906013529 | 57 | 274 | 13.0 | 20.0 | 0.00 | 0.08 | 0.00 | 81 | 1022.2 |
| 20260906012527 | 57 | 272 | 11.0 | 20.0 | 0.00 | 0.08 | 0.00 | 81 | 1022.2 |
| 20260906010529 | 57 | 260 | 11.0 | 20.0 | 0.00 | 0.08 | 0.00 | 81 | 1022.0 |
| 20260906004530 | 58 | 272 | 12.0 | 21.0 | 0.00 | 0.08 | 0.00 | 80 | 1022.0 |
| 20260906002528 | 58 | 266 | 12.0 | 18.0 | 0.00 | 0.08 | 0.00 | 79 | 1022.0 |
| 20260906000530 | 58 | 260 | 10.0 | 21.0 | 0.00 | 0.08 | 0.00 | 79 | 1021.5 |
| 20260905235530 | 58 | 261 | 11.0 | 21.0 | 0.00 | 0.08 | 0.00 | 78 | 1021.5 |
| 20260905234531 | 58 | 278 | 12.0 | 22.0 | 0.00 | 0.08 | 0.00 | 78 | 1021.5 |
| 20260905233530 | 58 | 261 | 13.0 | 21.0 | 0.00 | 0.08 | 0.00 | 78 | 1021.5 |
| 20260905232530 | 58 | 277 | 12.0 | 21.0 | 0.00 | 0.08 | 0.00 | 78 | 1021.5 |
| 20260905231529 | 59 | 261 | 10.0 | 20.0 | 0.00 | 0.08 | 0.00 | 77 | 1021.5 |
| 20260905230529 | 59 | 268 | 12.0 | 17.0 | 0.00 | 0.08 | 0.00 | 77 | 1021.0 |
| 20260905225528 | 59 | 264 | 12.0 | 17.0 | 0.00 | 0.08 | 0.00 | 77 | 1021.0 |
| 20260905224531 | 59 | 281 | 16.0 | 18.0 | 0.00 | 0.08 | 0.00 | 77 | 1021.0 |
| 20260905223529 | 59 | 273 | 14.0 | 16.0 | 0.00 | 0.08 | 0.00 | 77 | 1021.0 |
| 20260905222528 | 59 | 288 | 15.0 | 16.0 | 0.00 | 0.08 | 0.00 | 76 | 1021.0 |
| 20260905221532 | 59 | 269 | 10.0 | 16.0 | 0.00 | 0.08 | 0.00 | 76 | 1021.0 |
| 20260905220529 | 59 | 277 | 11.0 | 26.0 | 0.00 | 0.08 | 0.00 | 76 | 1020.6 |
| 20260905215528 | 59 | 277 | 10.0 | 23.0 | 0.00 | 0.08 | 0.00 | 76 | 1020.6 |
| 20260905214531 | 60 | 262 | 9.0 | 25.0 | 0.00 | 0.08 | 0.00 | 75 | 1020.6 |
| 20260905213530 | 60 | 269 | 9.0 | 27.0 | 0.00 | 0.08 | 0.00 | 75 | 1020.6 |
| 20260905212530 | 60 | 261 | 11.0 | 23.0 | 0.00 | 0.08 | 0.00 | 75 | 1020.6 |
| 20260905211532 | 60 | 299 | 14.0 | 23.0 | 0.00 | 0.08 | 0.00 | 75 | 1020.6 |
| 20260905210530 | 60 | 292 | 14.0 | 22.0 | 0.00 | 0.08 | 0.00 | 75 | 1020.0 |
| 20260905205530 | 60 | 297 | 14.0 | 21.0 | 0.00 | 0.08 | 0.00 | 75 | 1020.0 |
| 20260905203530 | 60 | 279 | 12.0 | 20.0 | 0.00 | 0.08 | 0.00 | 74 | 1020.0 |
| 20260905202529 | 60 | 278 | 13.0 | 23.0 | 0.00 | 0.08 | 0.00 | 74 | 1020.0 |
| 20260905201531 | 60 | 279 | 11.0 | 21.0 | 0.00 | 0.08 | 0.00 | 74 | 1020.0 |
| 20260905200530 | 60 | 267 | 10.0 | 24.0 | 0.00 | 0.08 | 0.00 | 74 | 1019.3 |
| 20260905195529 | 60 | 269 | 11.0 | 24.0 | 0.00 | 0.09 | 0.00 | 74 | 1019.3 |
| 20260905192530 | 61 | 289 | 13.0 | 24.0 | 0.00 | 0.10 | 0.00 | 72 | 1019.3 |
| 20260905191532 | 61 | 279 | 14.0 | 22.0 | 0.00 | 0.11 | 0.00 | 71 | 1019.3 |
| 20260905190530 | 62 | 263 | 13.0 | 18.0 | 0.00 | 0.11 | 0.00 | 71 | 1018.5 |
| 20260905185530 | 62 | 272 | 13.0 | 18.0 | 0.00 | 0.11 | 0.00 | 72 | 1018.5 |
| 20260905184534 | 62 | 274 | 10.0 | 16.0 | 0.00 | 0.12 | 0.00 | 73 | 1018.5 |
| 20260905183529 | 62 | 269 | 10.0 | 19.0 | 0.00 | 0.12 | 0.00 | 74 | 1018.5 |
| 20260905182529 | 62 | 269 | 9.0 | 16.0 | 0.00 | 0.13 | 0.00 | 74 | 1018.5 |
| 20260905181531 | 62 | 250 | 9.0 | 19.0 | 0.00 | 0.13 | 0.00 | 74 | 1018.5 |
| 20260905180530 | 62 | 253 | 10.0 | 16.0 | 0.00 | 0.13 | 0.00 | 75 | 1017.9 |
| 20260905175528 | 62 | 259 | 10.0 | 16.0 | 0.00 | 0.13 | 0.00 | 75 | 1017.9 |
| 20260905174534 | 62 | 270 | 14.0 | 17.0 | 0.01 | 0.13 | 0.00 | 75 | 1017.9 |
| 20260905173529 | 62 | 263 | 14.0 | 18.0 | 0.01 | 0.13 | 0.00 | 75 | 1017.9 |
| 20260905172529 | 62 | 271 | 12.0 | 17.0 | 0.02 | 0.13 | 0.00 | 75 | 1017.9 |
| 20260905170531 | 62 | 271 | 12.0 | 35.0 | 0.03 | 0.13 | 0.00 | 76 | 1017.3 |
| 20260905165529 | 63 | 265 | 14.0 | 32.0 | 0.03 | 0.16 | 0.00 | 75 | 1017.3 |
| 20260905163531 | 63 | 265 | 13.0 | 34.0 | 0.02 | 0.23 | 0.00 | 75 | 1017.3 |
| 20260905162530 | 63 | 270 | 11.0 | 32.0 | 0.02 | 0.26 | 0.00 | 75 | 1017.3 |
| 20260905161532 | 63 | 260 | 14.0 | 38.0 | 0.02 | 0.29 | 0.00 | 76 | 1017.3 |
| 20260905160533 | 63 | 276 | 11.0 | 37.0 | 0.02 | 0.32 | 0.00 | 76 | 1017.1 |
| 20260905155530 | 63 | 279 | 11.0 | 36.0 | 0.02 | 0.32 | 0.00 | 76 | 1017.1 |
| 20260905154534 | 63 | 283 | 15.0 | 32.0 | 0.02 | 0.32 | 0.00 | 76 | 1017.1 |
| 20260905153532 | 63 | 271 | 18.0 | 35.0 | 0.03 | 0.32 | 0.00 | 76 | 1017.1 |
| 20260905152529 | 62 | 273 | 15.0 | 32.0 | 0.03 | 0.31 | 0.00 | 77 | 1017.1 |
| 20260905151533 | 62 | 302 | 19.0 | 35.0 | 0.04 | 0.31 | 0.00 | 78 | 1017.1 |
| 20260905150530 | 62 | 308 | 20.0 | 37.0 | 0.04 | 0.31 | 0.00 | 78 | 1015.5 |